TimeCDT,TemperatureF,Dew PointF,Humidity,Sea Level PressureIn,VisibilityMPH,Wind Direction,Wind SpeedMPH,Gust SpeedMPH,PrecipitationIn,Events,Conditions,WindDirDegrees,DateUTC
12:15 AM,60.8,48.7,64,30.16,10.0,North,9.2,-,N/A,,Overcast,350,2012-10-08 05:15:00
12:35 AM,60.4,48.4,64,30.16,10.0,North,11.5,-,N/A,,Overcast,360,2012-10-08 05:35:00
12:55 AM,60.3,48.0,64,30.16,10.0,NNW,9.2,-,N/A,,Overcast,340,2012-10-08 05:55:00
1:15 AM,60.1,47.8,64,30.16,10.0,North,9.2,-,N/A,,Overcast,350,2012-10-08 06:15:00
1:35 AM,59.9,47.7,64,30.16,10.0,North,9.2,-,N/A,,Overcast,350,2012-10-08 06:35:00
1:55 AM,59.9,47.3,63,30.16,10.0,North,13.8,-,N/A,,Overcast,350,2012-10-08 06:55:00
2:15 AM,59.7,47.3,63,30.16,10.0,North,10.4,-,N/A,,Overcast,350,2012-10-08 07:15:00
2:35 AM,59.4,46.9,63,30.16,10.0,North,11.5,-,N/A,,Overcast,360,2012-10-08 07:35:00
2:55 AM,59.2,46.8,63,30.16,10.0,North,10.4,-,N/A,,Overcast,350,2012-10-08 07:55:00
3:15 AM,59.2,46.4,63,30.16,10.0,North,10.4,-,N/A,,Overcast,360,2012-10-08 08:15:00
3:35 AM,59.0,46.4,63,30.16,10.0,North,10.4,-,N/A,,Overcast,350,2012-10-08 08:35:00
3:55 AM,59.0,46.4,63,30.16,10.0,North,12.7,16.1,N/A,,Overcast,360,2012-10-08 08:55:00
4:15 AM,59.0,46.4,63,30.16,10.0,North,9.2,-,N/A,,Overcast,350,2012-10-08 09:15:00
4:35 AM,58.6,46.0,63,30.16,10.0,North,12.7,17.3,N/A,,Overcast,350,2012-10-08 09:35:00
4:55 AM,58.3,45.7,63,30.15,10.0,North,11.5,-,N/A,,Overcast,10,2012-10-08 09:55:00
5:15 AM,58.3,45.9,63,30.16,10.0,North,11.5,-,N/A,,Overcast,350,2012-10-08 10:15:00
5:35 AM,57.9,45.9,64,30.16,10.0,North,9.2,-,N/A,,Overcast,360,2012-10-08 10:35:00
5:55 AM,57.6,46.0,65,30.16,10.0,North,10.4,-,N/A,,Overcast,10,2012-10-08 10:55:00
6:15 AM,57.4,46.0,66,30.17,10.0,North,10.4,-,N/A,,Overcast,360,2012-10-08 11:15:00
6:35 AM,57.0,46.2,67,30.18,10.0,NNW,10.4,-,N/A,,Overcast,340,2012-10-08 11:35:00
6:55 AM,56.5,46.2,68,30.18,10.0,North,9.2,-,N/A,,Overcast,360,2012-10-08 11:55:00
7:15 AM,56.3,46.0,68,30.18,10.0,North,11.5,-,N/A,,Overcast,350,2012-10-08 12:15:00
7:35 AM,56.3,45.9,68,30.19,10.0,North,10.4,-,N/A,,Overcast,350,2012-10-08 12:35:00
7:55 AM,56.3,46.0,68,30.20,10.0,North,8.1,-,N/A,,Overcast,360,2012-10-08 12:55:00
8:15 AM,56.1,45.9,68,30.21,10.0,North,6.9,-,N/A,,Overcast,350,2012-10-08 13:15:00
8:35 AM,55.8,46.0,70,30.21,10.0,North,6.9,-,N/A,,Overcast,350,2012-10-08 13:35:00
8:55 AM,55.8,46.0,70,30.22,10.0,NW,6.9,-,N/A,,Overcast,320,2012-10-08 13:55:00
9:15 AM,55.6,46.4,71,30.22,10.0,NNW,8.1,-,N/A,,Overcast,330,2012-10-08 14:15:00
9:35 AM,55.8,46.4,71,30.23,10.0,NNW,9.2,-,N/A,,Overcast,330,2012-10-08 14:35:00
9:55 AM,55.8,46.4,71,30.24,10.0,NNW,6.9,-,N/A,,Overcast,340,2012-10-08 14:55:00
10:15 AM,56.1,46.8,71,30.24,10.0,NW,6.9,-,N/A,,Overcast,320,2012-10-08 15:15:00
10:35 AM,56.5,46.9,70,30.24,10.0,NNW,6.9,-,N/A,,Overcast,340,2012-10-08 15:35:00
10:55 AM,56.7,46.6,69,30.24,10.0,NW,8.1,-,N/A,,Overcast,310,2012-10-08 15:55:00
11:15 AM,56.8,46.9,69,30.23,10.0,NNW,6.9,-,N/A,,Overcast,330,2012-10-08 16:15:00
11:35 AM,57.2,47.1,69,30.24,10.0,NNW,4.6,-,N/A,,Overcast,330,2012-10-08 16:35:00
11:55 AM,57.7,47.3,68,30.23,10.0,WNW,4.6,-,N/A,,Overcast,290,2012-10-08 16:55:00
12:15 PM,57.9,47.3,68,30.22,10.0,NW,5.8,-,N/A,,Overcast,310,2012-10-08 17:15:00
12:35 PM,58.3,46.8,66,30.21,10.0,NW,9.2,-,N/A,,Overcast,320,2012-10-08 17:35:00
12:55 PM,59.0,46.9,64,30.20,10.0,NW,6.9,-,N/A,,Overcast,320,2012-10-08 17:55:00
1:15 PM,59.9,47.1,63,30.19,10.0,North,6.9,-,N/A,,Overcast,360,2012-10-08 18:15:00
1:35 PM,61.2,47.3,60,30.18,10.0,NNW,8.1,-,N/A,,Overcast,340,2012-10-08 18:35:00
1:55 PM,61.7,47.7,60,30.18,10.0,NW,4.6,-,N/A,,Overcast,320,2012-10-08 18:55:00
2:15 PM,62.4,47.8,59,30.17,10.0,North,3.5,-,N/A,,Overcast,10,2012-10-08 19:15:00
2:35 PM,63.0,47.8,58,30.16,10.0,Calm,Calm,-,N/A,,Overcast,0,2012-10-08 19:35:00
2:55 PM,63.5,48.2,57,30.15,10.0,NNE,4.6,-,N/A,,Overcast,20,2012-10-08 19:55:00
3:15 PM,63.9,48.0,56,30.14,10.0,Calm,Calm,-,N/A,,Overcast,0,2012-10-08 20:15:00
3:35 PM,63.9,48.4,57,30.13,10.0,Calm,Calm,-,N/A,,Overcast,0,2012-10-08 20:35:00
3:55 PM,64.4,48.2,56,30.13,10.0,NNE,3.5,-,N/A,,Overcast,20,2012-10-08 20:55:00
4:15 PM,65.1,48.4,55,30.12,10.0,North,3.5,-,N/A,,Overcast,10,2012-10-08 21:15:00
4:35 PM,64.9,48.4,55,30.12,10.0,Calm,Calm,-,N/A,,Overcast,0,2012-10-08 21:35:00
4:55 PM,65.1,48.6,55,30.11,10.0,Calm,Calm,-,N/A,,Overcast,0,2012-10-08 21:55:00
5:15 PM,65.3,48.7,55,30.11,10.0,Calm,Calm,-,N/A,,Overcast,0,2012-10-08 22:15:00
5:35 PM,65.5,48.7,55,30.11,10.0,Calm,Calm,-,N/A,,Overcast,0,2012-10-08 22:35:00
5:55 PM,65.8,48.7,54,30.11,10.0,ENE,4.6,-,N/A,,Overcast,60,2012-10-08 22:55:00
6:15 PM,66.2,49.1,54,30.11,10.0,ESE,3.5,-,N/A,,Overcast,110,2012-10-08 23:15:00
6:35 PM,65.8,49.3,55,30.11,10.0,ESE,3.5,-,N/A,,Overcast,110,2012-10-08 23:35:00
6:55 PM,65.7,49.5,56,30.11,10.0,Calm,Calm,-,N/A,,Overcast,0,2012-10-08 23:55:00
7:15 PM,65.3,49.5,57,30.11,10.0,ESE,3.5,-,N/A,,Overcast,110,2012-10-09 00:15:00
7:35 PM,65.3,49.8,57,30.11,10.0,SE,4.6,-,N/A,,Overcast,140,2012-10-09 00:35:00
7:55 PM,65.3,50.0,58,30.11,10.0,Calm,Calm,-,N/A,,Overcast,0,2012-10-09 00:55:00
8:15 PM,65.3,50.2,58,30.11,10.0,Calm,Calm,-,N/A,,Overcast,0,2012-10-09 01:15:00
8:35 PM,65.3,50.2,58,30.11,10.0,Calm,Calm,-,N/A,,Overcast,0,2012-10-09 01:35:00
8:55 PM,65.3,50.5,59,30.12,10.0,Calm,Calm,-,N/A,,Overcast,0,2012-10-09 01:55:00
9:15 PM,65.1,50.9,60,30.12,10.0,Calm,Calm,-,N/A,,Overcast,0,2012-10-09 02:15:00
9:35 PM,64.9,50.9,60,30.12,10.0,Calm,Calm,-,N/A,,Overcast,0,2012-10-09 02:35:00
9:55 PM,64.8,51.1,61,30.12,10.0,Calm,Calm,-,N/A,,Overcast,0,2012-10-09 02:55:00
10:15 PM,64.6,51.1,62,30.11,10.0,Calm,Calm,-,N/A,,Overcast,0,2012-10-09 03:15:00
10:55 PM,64.4,51.6,63,30.11,10.0,Calm,Calm,-,N/A,,Mostly Cloudy,0,2012-10-09 03:55:00
11:35 PM,63.1,52.5,68,30.11,10.0,Calm,Calm,-,N/A,,Scattered Clouds,0,2012-10-09 04:35:00